Regional Weather Roundup
Issued by NWS

Home | Current Version | Previous Version | Graphics & Text | Print | Product List | Glossary On
Versions: 1 2 3 4 5 6 7 8 9 10 11 12 13 14 15 16 17 18 19 20 21 22 23 24 25 26 27 28 29 30 31 32 33 34 35 36 37 38 39 40 41 42 43 44 45 46 47 48 49 50
000
ASUS43 KDTX 312101
RWRMI
MICHIGAN HOURLY REGIONAL WEATHER ROUNDUP
NATIONAL WEATHER SERVICE DETROIT/PONTIAC MI
500 PM EDT FRI OCT 31 2014

NOTE: "FAIR" INDICATES FEW OR NO CLOUDS BELOW 12,000 FEET WITH NO
SIGNIFICANT WEATHER AND/OR OBSTRUCTION TO VISIBILITY.

MIZ047>049-052>055-059>063-066>070-074>076-081>083-312200-
SOUTHEAST LOWER MICHIGAN

CITY           SKY/WX    TMP DP  RH WIND       PRES   REMARKS
ADRIAN         LGT RAIN  39  35  86 N22G30    29.95R WCI  29
ALMA           CLOUDY    36  28  74 N20G33    30.11R WCI  25
ANN ARBOR      LGT RAIN  39  33  79 N20G32    29.93R WCI  29
BAD AXE        FLURRIES  36  35  96 N20G31    30.04R WCI  25
CARO           LGT RAIN  36  34  93 N15G23    30.04R WCI  26
DETROIT CITY   LGT RAIN  42  36  79 N21G29    29.92R
DETROIT        LGT RAIN  40  35  83 N21G29    29.92R WCI  30
FLINT          LGT RAIN  38  33  82 N20G29    30.02R WCI  28
GROSSE ILE     LGT RAIN  43  37  81 N16       29.89R
HILLSDALE      FLURRIES  37  35  94 N18G25    29.97R WCI  27
HOWELL         LGT RAIN  34  33  96 N12G22    30.00R WCI  26

CITY           SKY/WX    TMP DP  RH WIND       PRES   REMARKS
JACKSON        MIX PCPN  35  33  92 N18G29    30.00R WCI  24
LAMBERTVILLE   LGT RAIN  41  37  87 N12G17    29.91R
LANSING        LGT SNOW  35  31  85 N24G33    30.06R FOG     WCI  23
LAPEER         LGT RAIN  35  34  95 N20G25    29.99R WCI  24
MASON          LGT SNOW  34  32  93 N18G26    30.03R WCI  23
MONROE         LGT RAIN  41  37  87 N17G32    29.89R
MT. CLEMENS    LGT RAIN  38  38 100 N20G32    29.90R FOG     WCI  28
PONTIAC        LGT RAIN  36  32  85 N15G29    29.94R WCI  27
PORT HOPE        N/A     40  35  83 N32G45    30.02R WCI  28
PORT HURON     MIX PCPN  39  39 100 N17G26    29.91R WCI  30
TRI CITIES     CLOUDY    37  29  72 N26G35    30.08R WCI  25
TROY           LGT RAIN  39  36  86 N18G29    29.94R WCI  30
SAGINAW HB     FLURRIES  36  36 100 N18G32    30.06R WCI  25
$$
MIZ043>046-050>051-056>058-064>065-071>073-077>080-312200-
SOUTHWEST LOWER MICHIGAN

CITY           SKY/WX    TMP DP  RH WIND       PRES   REMARKS
BATTLE CREEK   LGT SNOW  36  31  82 N22G32    30.06R WCI  25
BENTON HARBOR  CLOUDY    37  29  72 N13G30    30.12R WCI  29
BIG RAPIDS     CLOUDY    33  29  84 N21G29    30.17R WCI  21
COLDWATER      CLOUDY    37  33  85 N18G28    30.01R WCI  27
FREMONT        CLOUDY    34  25  68 NE18G29   30.18R WCI  23
HOLLAND        CLOUDY    37  29  72 N13G26    30.16R WCI  29
GRAND RAPIDS   CLOUDY    37  28  70 N18G32    30.12R WCI  27
IONIA          CLOUDY    37  29  75 N17G32    30.09R WCI  27
KALAMAZOO      LGT SNOW  35  32  88 N15       30.07R FOG     WCI  25
LUDINGTON      CLOUDY    37  27  69 N17G30    30.23R WCI  27
MARSHALL       CLOUDY    35  31  85 N7G24     30.03R WCI  29
MOUNT PLEASANT CLOUDY    36  26  66 N14G29    30.13R WCI  27
MUSKEGON       CLOUDY    37  26  64 N18G26    30.20R WCI  27
SOUTH HAVEN    CLOUDY    37  30  74 N20G30    30.13R WCI  27
$$
MIZ016>042-312200-
NORTHERN LOWER MICHIGAN

CITY           SKY/WX    TMP DP  RH WIND       PRES   REMARKS
ALPENA         CLOUDY    34  26  72 N21G29    30.18R WCI  22
BEAVER ISLAND  CLOUDY    35  20  55 N12G25    30.31R WCI  27
BELLAIRE       CLOUDY    35  22  59 N14G22    30.26R WCI  25
CADILLAC       CLOUDY    30  24  80 N12G18    30.17R WCI  20
CHARLEVOIX     CLOUDY    35  24  64 N21G26    30.29R WCI  23
FRANKFORT      CLOUDY    36  24  62 N15G25    30.27R WCI  26
GAYLORD        CLOUDY    30  22  72 N10G24    30.20R WCI  21
GRAYLING       CLOUDY    33  24  71 N23G31    30.20R WCI  20
HARBOR SPRINGS CLOUDY    32  23  68 N12G17    30.26S WCI  23
HOUGHTON LAKE  CLOUDY    32  24  72 N17G28    30.17R WCI  21
OSCODA         LGT SNOW  33  32  98 N17G26    30.11R VSB 3/4 WCI  21
PELLSTON       CLOUDY    33  23  66 N20       30.27R WCI  21
ROGERS CITY    CLOUDY    34  25  69 N18G25    30.23R WCI  23
TRAVERSE CITY  FLURRIES  37  25  61 N17G33    30.24R WCI  27
$$
MIZ007>008-015-312200-
EASTERN UPPER MICHIGAN

CITY           SKY/WX    TMP DP  RH WIND       PRES   REMARKS
KINROSS        CLOUDY    34  19  55 N17G24    30.27R WCI  23
MACKINAC ISLAN CLOUDY    34  21  60 N18G28    30.27R WCI  23
NEWBERRY       CLOUDY    32  20  61 N16G26    30.31R WCI  21
S. S. MARIE    CLOUDY    32  17  54 N15G29    30.29R WCI  22
MUNISING         N/A     38  23  55 N29G35    30.37S WCI  26
$$
MIZ004>006-011>014-085-312200-
CENTRAL UPPER MICHIGAN

CITY           SKY/WX    TMP DP  RH WIND       PRES   REMARKS
MANISTIQUE     CLOUDY    33  22  62 N13G18    30.33R WCI  24
ESCANABA       PTSUNNY   36  19  51 N14G21    30.36S WCI  27
MENOMINEE      PTSUNNY   36  19  51 N16G30    30.36R WCI  26
SAWYER-GWINN   PTSUNNY   30  23  74 N16       30.37S WCI  19
$$
MIZ001>003-009>011-084-312200-
WESTERN UPPER MICHIGAN

CITY           SKY/WX    TMP DP  RH WIND       PRES   REMARKS
IRON MOUNTAIN  PTSUNNY   33  18  53 N18G26    30.38R WCI  22
HOUGHTON       CLOUDY    32  21  64 N9        30.42F WCI  24
COPPER HARBOR    N/A     36  26  67 N15G24    30.42F WCI  27
IRONWOOD       CLOUDY    32  23  69 NW10      30.44S WCI  24
$$

ABBREVIATIONS USED IN REMARKS
   TC - TEMPERATURE IN CELSIUS
  WCI - WIND CHILL INDEX
   HX - HEAT INDEX
  VSB - VISIBILITY




USA.gov is the U.S. government's official web portal to all federal, state and local government web resources and services.